LACMA ENOCH (43777 NORAD) Tracking and Keplerian Element Data

This shows tracking and keplerian element data for the satellite.

Feedback or suggestion? Click here.




ElementValue
Catalog43777
NameLACMA ENOCH
Epoch Orbit3300
Epoch Day193.74984886
Epoch Year2019
RAAN265.1819
Inclination97.7444
Eccentricity0.001386
Argument of Perigee236.5377
Mean Anonmoly123.452
Mean Motion14.95050634
Decay Rate4.483E-05
L11 43777U 18099V 19193.74984886 .00004483 00000-0 41391-3 0 9992
L22 43777 97.7444 265.1819 0013860 236.5377 123.4520 14.95050634 33008

Live tracking and technical data element details for LACMA ENOCH (NORAD 43777). LACMA ENOCH can be tracked NOW for your location showing map with azimuth and elevation plus other details from your city location.

Track the satellite on the map from your city or location and see movement details for azimuth, elevation, latitude, longitude, range, height, and movement on the map or in text.







IsCatalogInMostPopularTable: catalog: 43777, numindb: 65
Update: records affected: 1



GetName: 43777 LACMA ENOCH

Hit Count: updated at: Wed, 17 Jul 2019 08:41:39 GMT